DAL1260 KFSD-KMSP

Flight info

Callsign DAL1260
Flight time 0h 40m
Altitude 23000
Route SSWAN TORGY4
Aircraft A319/M-SDE3FGHIRWY/LB1

Departure

Time 2026-05-06 20:37
Airport Sioux Falls Regional Airport (KFSD)

Arrival

Time 2026-05-06 21:18
Airport Minneapolis–Saint Paul International Airport / Wold–Chamberlain Field (KMSP)
Time Latitude Longitude Altitude Speed Heading
2026-05-06 20:17 43.57993 -96.73279 1425 ft 0 kts 29°
2026-05-06 20:30 43.57987 -96.73283 1425 ft 2 kts 29°
2026-05-06 20:30 43.57964 -96.73301 1426 ft 0 kts 29°
2026-05-06 20:30 43.57952 -96.73307 1426 ft 2 kts 359°
2026-05-06 20:31 43.57937 -96.73302 1426 ft 2 kts 324°
2026-05-06 20:31 43.57930 -96.73292 1426 ft 0 kts 302°
2026-05-06 20:31 43.57927 -96.73283 1426 ft 0 kts 298°
2026-05-06 20:33 43.57929 -96.73289 1426 ft 1 kts 298°
2026-05-06 20:34 43.57942 -96.73322 1426 ft 6 kts 299°
2026-05-06 20:34 43.57972 -96.73392 1426 ft 10 kts 300°
2026-05-06 20:34 43.58018 -96.73496 1426 ft 14 kts 301°
2026-05-06 20:34 43.58002 -96.73587 1426 ft 9 kts 195°
2026-05-06 20:35 43.57936 -96.73553 1426 ft 11 kts 151°
2026-05-06 20:35 43.57860 -96.73505 1426 ft 12 kts 155°
2026-05-06 20:35 43.57773 -96.73450 1426 ft 14 kts 155°
2026-05-06 20:35 43.57679 -96.73391 1426 ft 15 kts 155°
2026-05-06 20:36 43.57576 -96.73326 1426 ft 16 kts 155°
2026-05-06 20:36 43.57467 -96.73259 1426 ft 17 kts 156°
2026-05-06 20:36 43.57362 -96.73302 1426 ft 17 kts 253°
2026-05-06 20:36 43.57408 -96.73380 1426 ft 10 kts 334°
2026-05-06 20:37 43.57505 -96.73443 1426 ft 33 kts 335°
2026-05-06 20:37 43.57947 -96.73731 1426 ft 105 kts 335°
2026-05-06 20:37 43.58798 -96.74275 1465 ft 158 kts 333°
2026-05-06 20:37 43.59768 -96.74912 2169 ft 155 kts 333°
2026-05-06 20:38 43.60728 -96.75530 2943 ft 155 kts 334°
2026-05-06 20:38 43.61772 -96.75841 3523 ft 166 kts
2026-05-06 20:38 43.62808 -96.74981 3924 ft 191 kts 49°
2026-05-06 20:38 43.63280 -96.73165 4353 ft 215 kts 81°
2026-05-06 20:39 43.63529 -96.71069 4831 ft 230 kts 65°
2026-05-06 20:39 43.64441 -96.69223 5325 ft 241 kts 41°
2026-05-06 20:39 43.65713 -96.67623 5850 ft 257 kts 37°
2026-05-06 20:39 43.67090 -96.65936 6403 ft 274 kts 38°
2026-05-06 20:40 43.68486 -96.64126 7217 ft 280 kts 40°
2026-05-06 20:40 43.69885 -96.62220 8096 ft 283 kts 41°
2026-05-06 20:40 43.71276 -96.60274 8935 ft 287 kts 42°
2026-05-06 20:40 43.72660 -96.58303 9757 ft 290 kts 42°
2026-05-06 20:41 43.74059 -96.56290 10541 ft 295 kts 41°
2026-05-06 20:41 43.75522 -96.54186 10996 ft 313 kts 41°
2026-05-06 20:41 43.77081 -96.51940 11405 ft 331 kts 41°
2026-05-06 20:41 43.78686 -96.49618 12048 ft 341 kts 41°
2026-05-06 20:42 43.80316 -96.47248 12880 ft 343 kts 41°
2026-05-06 20:42 43.81951 -96.44869 13667 ft 346 kts 41°
2026-05-06 20:42 43.83628 -96.42429 14421 ft 350 kts 41°
2026-05-06 20:42 43.85298 -96.39998 15141 ft 354 kts 41°
2026-05-06 20:43 43.86995 -96.37526 15853 ft 357 kts 41°
2026-05-06 20:43 43.88718 -96.35014 16554 ft 360 kts 41°
2026-05-06 20:43 43.90445 -96.32484 17211 ft 364 kts 41°
2026-05-06 20:43 43.92173 -96.29946 17840 ft 367 kts 41°
2026-05-06 20:44 43.93952 -96.27336 18472 ft 370 kts 41°
2026-05-06 20:44 43.95703 -96.24769 19062 ft 373 kts 41°
2026-05-06 20:44 43.97496 -96.22143 19654 ft 376 kts 41°
2026-05-06 20:44 43.99313 -96.19478 20245 ft 379 kts 41°
2026-05-06 20:45 44.01115 -96.16834 20800 ft 382 kts 41°
2026-05-06 20:45 44.02955 -96.14133 21350 ft 385 kts 41°
2026-05-06 20:45 44.04790 -96.11437 21875 ft 387 kts 41°
2026-05-06 20:45 44.06665 -96.08681 22398 ft 390 kts 41°
2026-05-06 20:46 44.08545 -96.05914 22868 ft 393 kts 41°
2026-05-06 20:46 44.10404 -96.03175 23071 ft 395 kts 41°
2026-05-06 20:46 44.12292 -96.00401 23080 ft 394 kts 41°
2026-05-06 20:46 44.14155 -95.97567 23084 ft 396 kts 45°
2026-05-06 20:47 44.15831 -95.94563 23086 ft 399 kts 50°
2026-05-06 20:47 44.17341 -95.91280 23087 ft 402 kts 54°
2026-05-06 20:47 44.18719 -95.87865 23087 ft 403 kts 56°
2026-05-06 20:47 44.20060 -95.84441 23086 ft 403 kts 56°
2026-05-06 20:48 44.21389 -95.81037 23086 ft 403 kts 56°
2026-05-06 20:48 44.22739 -95.77581 23086 ft 403 kts 56°
2026-05-06 20:48 44.24076 -95.74167 23087 ft 403 kts 56°
2026-05-06 20:48 44.25410 -95.70760 23086 ft 403 kts 56°
2026-05-06 20:49 44.26760 -95.67313 23086 ft 404 kts 56°
2026-05-06 20:49 44.28102 -95.63884 23086 ft 404 kts 56°
2026-05-06 20:49 44.29436 -95.60472 23086 ft 404 kts 56°
2026-05-06 20:49 44.30774 -95.57047 23086 ft 404 kts 56°
2026-05-06 20:50 44.32126 -95.53584 23086 ft 404 kts 56°
2026-05-06 20:50 44.33463 -95.50153 23086 ft 404 kts 56°
2026-05-06 20:50 44.34811 -95.46693 23087 ft 404 kts 56°
2026-05-06 20:50 44.36134 -95.43288 23088 ft 404 kts 56°
2026-05-06 20:51 44.37492 -95.39788 23089 ft 404 kts 56°
2026-05-06 20:51 44.38814 -95.36381 23091 ft 405 kts 56°
2026-05-06 20:51 44.40167 -95.32884 23091 ft 405 kts 57°
2026-05-06 20:51 44.41499 -95.29424 23093 ft 405 kts 57°
2026-05-06 20:52 44.42825 -95.25978 23092 ft 401 kts 57°
2026-05-06 20:52 44.44143 -95.22544 23096 ft 399 kts 58°
2026-05-06 20:52 44.45354 -95.19063 23098 ft 401 kts 61°
2026-05-06 20:52 44.46416 -95.15427 23099 ft 403 kts 65°
2026-05-06 20:53 44.47323 -95.11729 23102 ft 404 kts 67°
2026-05-06 20:53 44.48198 -95.07967 23102 ft 405 kts 68°
2026-05-06 20:53 44.49070 -95.04183 23103 ft 405 kts 68°
2026-05-06 20:53 44.49936 -95.00429 23104 ft 405 kts 68°
2026-05-06 20:54 44.50799 -94.96697 23104 ft 406 kts 68°
2026-05-06 20:54 44.51674 -94.92911 23104 ft 406 kts 68°
2026-05-06 20:54 44.52537 -94.89177 23103 ft 406 kts 68°
2026-05-06 20:54 44.53415 -94.85377 23102 ft 407 kts 68°
2026-05-06 20:55 44.54293 -94.81574 23101 ft 407 kts 68°
2026-05-06 20:55 44.55171 -94.77762 23099 ft 408 kts 68°
2026-05-06 20:55 44.56051 -94.73935 23098 ft 408 kts 68°
2026-05-06 20:55 44.56926 -94.70126 23097 ft 408 kts 68°
2026-05-06 20:56 44.57792 -94.66347 23097 ft 409 kts 68°
2026-05-06 20:56 44.58669 -94.62511 22961 ft 409 kts 68°
2026-05-06 20:56 44.59531 -94.58739 22712 ft 407 kts 68°
2026-05-06 20:56 44.60390 -94.54970 22442 ft 406 kts 68°
2026-05-06 20:57 44.61240 -94.51238 22078 ft 403 kts 68°
2026-05-06 20:57 44.62098 -94.47463 21547 ft 403 kts 68°
2026-05-06 20:57 44.62938 -94.43761 21134 ft 398 kts 68°
2026-05-06 20:57 44.63768 -94.40090 20680 ft 395 kts 68°
2026-05-06 20:58 44.64595 -94.36430 20211 ft 391 kts 68°
2026-05-06 20:58 44.65424 -94.32752 19715 ft 389 kts 69°
2026-05-06 20:58 44.66230 -94.29153 19221 ft 387 kts 69°
2026-05-06 20:58 44.67030 -94.25579 18752 ft 384 kts 69°
2026-05-06 20:59 44.67836 -94.21989 18284 ft 380 kts 69°
2026-05-06 20:59 44.68624 -94.18491 17813 ft 378 kts 69°
2026-05-06 20:59 44.69411 -94.14994 17339 ft 375 kts 69°
2026-05-06 20:59 44.70202 -94.11481 16769 ft 375 kts 69°
2026-05-06 21:00 44.70978 -94.08022 16385 ft 370 kts 69°
2026-05-06 21:00 44.71741 -94.04620 15969 ft 365 kts 69°
2026-05-06 21:00 44.72496 -94.01248 15599 ft 360 kts 69°
2026-05-06 21:00 44.73251 -93.97884 15230 ft 355 kts 69°
2026-05-06 21:01 44.73978 -93.94630 14878 ft 350 kts 69°
2026-05-06 21:01 44.74699 -93.91396 14528 ft 344 kts 69°
2026-05-06 21:01 44.75411 -93.88191 14183 ft 339 kts 69°
2026-05-06 21:01 44.76107 -93.85075 13849 ft 334 kts 69°
2026-05-06 21:02 44.76801 -93.81971 13517 ft 329 kts 69°
2026-05-06 21:02 44.77482 -93.78919 13204 ft 324 kts 69°
2026-05-06 21:02 44.78148 -93.75925 12932 ft 318 kts 69°
2026-05-06 21:02 44.78802 -93.72983 12678 ft 311 kts 69°
2026-05-06 21:03 44.79440 -93.70106 12438 ft 309 kts 69°
2026-05-06 21:03 44.80083 -93.67203 12186 ft 308 kts 69°
2026-05-06 21:03 44.80719 -93.64331 11928 ft 306 kts 69°
2026-05-06 21:03 44.81345 -93.61497 11676 ft 304 kts 69°
2026-05-06 21:04 44.81977 -93.58639 11317 ft 302 kts 69°
2026-05-06 21:04 44.82598 -93.55830 10877 ft 303 kts 69°
2026-05-06 21:04 44.83222 -93.52997 10552 ft 300 kts 69°
2026-05-06 21:04 44.83834 -93.50208 10201 ft 298 kts 69°
2026-05-06 21:05 44.84437 -93.47459 9855 ft 296 kts 70°
2026-05-06 21:05 44.84998 -93.44644 9498 ft 296 kts 79°
2026-05-06 21:05 44.84826 -93.41805 9172 ft 295 kts 110°
2026-05-06 21:05 44.83876 -93.39291 8933 ft 289 kts 122°
2026-05-06 21:06 44.82789 -93.36900 8656 ft 285 kts 123°
2026-05-06 21:06 44.81723 -93.34570 8391 ft 280 kts 123°
2026-05-06 21:06 44.80698 -93.32266 8143 ft 275 kts 122°
2026-05-06 21:06 44.79719 -93.30024 8056 ft 264 kts 122°
2026-05-06 21:07 44.78780 -93.27858 8010 ft 251 kts 122°
2026-05-06 21:07 44.77888 -93.25800 7995 ft 248 kts 122°
2026-05-06 21:07 44.76981 -93.23723 7990 ft 248 kts 122°
2026-05-06 21:07 44.76085 -93.21667 7991 ft 248 kts 122°
2026-05-06 21:08 44.75183 -93.19592 7989 ft 248 kts 122°
2026-05-06 21:08 44.74261 -93.17521 7989 ft 248 kts 127°
2026-05-06 21:08 44.73169 -93.15638 7870 ft 247 kts 133°
2026-05-06 21:08 44.72020 -93.13860 7746 ft 247 kts 134°
2026-05-06 21:09 44.70861 -93.12073 7619 ft 246 kts 133°
2026-05-06 21:09 44.69718 -93.10272 7494 ft 246 kts 132°
2026-05-06 21:09 44.68590 -93.08459 7368 ft 246 kts 132°
2026-05-06 21:09 44.67471 -93.06647 7242 ft 245 kts 132°
2026-05-06 21:10 44.66364 -93.04849 7118 ft 245 kts 132°
2026-05-06 21:10 44.65244 -93.03028 7004 ft 244 kts 132°
2026-05-06 21:10 44.64217 -93.01160 6983 ft 245 kts 115°
2026-05-06 21:10 44.63959 -92.98853 6983 ft 241 kts 75°
2026-05-06 21:11 44.64729 -92.96816 6892 ft 235 kts 39°
2026-05-06 21:11 44.65984 -92.95421 6704 ft 229 kts 31°
2026-05-06 21:11 44.67267 -92.94109 6508 ft 229 kts 32°
2026-05-06 21:11 44.68552 -92.92761 6309 ft 228 kts 31°
2026-05-06 21:12 44.69938 -92.91870 6076 ft 218 kts 359°
2026-05-06 21:12 44.71339 -92.92390 5787 ft 207 kts 322°
2026-05-06 21:12 44.72447 -92.93626 5563 ft 203 kts 319°
2026-05-06 21:12 44.73552 -92.94861 5346 ft 200 kts 320°
2026-05-06 21:13 44.74645 -92.96048 5118 ft 199 kts 320°
2026-05-06 21:13 44.75742 -92.97223 4888 ft 196 kts 321°
2026-05-06 21:13 44.76812 -92.98360 4662 ft 193 kts 321°
2026-05-06 21:13 44.77880 -92.99493 4385 ft 193 kts 321°
2026-05-06 21:14 44.78907 -93.00753 3977 ft 198 kts 308°
2026-05-06 21:14 44.79687 -93.02329 3721 ft 197 kts 302°
2026-05-06 21:14 44.80401 -93.03989 3456 ft 195 kts 300°
2026-05-06 21:14 44.81090 -93.05619 3197 ft 194 kts 301°
2026-05-06 21:15 44.81783 -93.07240 2938 ft 190 kts 301°
2026-05-06 21:15 44.82449 -93.08785 2684 ft 179 kts 301°
2026-05-06 21:15 44.83071 -93.10225 2454 ft 166 kts 301°
2026-05-06 21:15 44.83651 -93.11563 2236 ft 154 kts 300°
2026-05-06 21:16 44.84183 -93.12793 2019 ft 141 kts 300°
2026-05-06 21:16 44.84668 -93.13914 1826 ft 126 kts 300°
2026-05-06 21:16 44.85114 -93.14948 1684 ft 123 kts 301°
2026-05-06 21:16 44.85558 -93.15978 1537 ft 122 kts 300°
2026-05-06 21:17 44.86000 -93.16992 1383 ft 122 kts 299°
2026-05-06 21:17 44.86441 -93.18033 1221 ft 121 kts 299°
2026-05-06 21:17 44.86883 -93.19035 1051 ft 121 kts 300°
2026-05-06 21:17 44.87324 -93.20045 906 ft 120 kts 300°
2026-05-06 21:18 44.87737 -93.21023 849 ft 103 kts 302°
2026-05-06 21:18 44.87970 -93.21541 849 ft 33 kts 301°
2026-05-06 21:18 44.88075 -93.21645 848 ft 11 kts 30°
2026-05-06 21:18 44.88139 -93.21648 848 ft 10 kts 320°
2026-05-06 21:19 44.88179 -93.21730 848 ft 10 kts 303°
2026-05-06 21:19 44.88223 -93.21828 849 ft 12 kts 302°
2026-05-06 21:19 44.88280 -93.21928 848 ft 13 kts 341°
2026-05-06 21:19 44.88351 -93.21888 848 ft 10 kts 41°
2026-05-06 21:20 44.88408 -93.21812 848 ft 12 kts 44°
2026-05-06 21:20 44.88450 -93.21755 848 ft 13 kts 44°
2026-05-06 21:20 44.88525 -93.21618 848 ft 11 kts 95°
2026-05-06 21:20 44.88483 -93.21510 849 ft 13 kts 122°
2026-05-06 21:21 44.88441 -93.21394 848 ft 10 kts 118°
2026-05-06 21:21 44.88389 -93.21382 848 ft 6 kts 212°
2026-05-06 21:21 44.88374 -93.21397 848 ft 0 kts 216°